| time (UTC) | temp F | wind direction | speed MPH | gust MPH | rain 1hr in | rain 24hr in | rain mn in | humidity % | barometer mb |
| 20260901161036 | 93 | 102 | 2.0 | 5.0 | 0.00 | 0.00 | 0.00 | 49 | 1017.3 |
| 20260901160016 | 92 | 279 | 2.0 | 4.0 | 0.00 | 0.00 | 0.00 | 52 | 1017.3 |
| 20260901155016 | 92 | 207 | 2.0 | 6.0 | 0.00 | 0.00 | 0.00 | 52 | 1017.4 |
| 20260901154016 | 91 | 251 | 2.0 | 5.0 | 0.00 | 0.00 | 0.00 | 53 | 1017.3 |
| 20260901153016 | 90 | 169 | 1.0 | 2.0 | 0.00 | 0.00 | 0.00 | 54 | 1017.3 |
| 20260901152037 | 89 | 205 | 1.0 | 5.0 | 0.00 | 0.00 | 0.00 | 55 | 1017.3 |
| 20260901151017 | 89 | 190 | 2.0 | 5.0 | 0.00 | 0.00 | 0.00 | 56 | 1017.2 |
| 20260901150057 | 89 | 242 | 2.0 | 4.0 | 0.00 | 0.00 | 0.00 | 57 | 1017.3 |
| 20260901145037 | 88 | 234 | 1.0 | 5.0 | 0.00 | 0.00 | 0.00 | 58 | 1017.4 |
| 20260901144037 | 87 | 166 | 1.0 | 3.0 | 0.00 | 0.00 | 0.00 | 60 | 1017.5 |
| 20260901143017 | 87 | 200 | 2.0 | 4.0 | 0.00 | 0.00 | 0.00 | 61 | 1017.5 |
| 20260901142017 | 86 | 169 | 1.0 | 3.0 | 0.00 | 0.00 | 0.00 | 62 | 1017.5 |
| 20260901141018 | 85 | 233 | 1.0 | 5.0 | 0.00 | 0.00 | 0.00 | 64 | 1017.6 |
| 20260901140015 | 85 | 186 | 1.0 | 3.0 | 0.00 | 0.00 | 0.00 | 65 | 1017.5 |
| 20260901135018 | 84 | 193 | 0.0 | 2.0 | 0.00 | 0.00 | 0.00 | 65 | 1017.5 |
| 20260901134018 | 83 | 195 | 1.0 | 3.0 | 0.00 | 0.00 | 0.00 | 66 | 1017.5 |
| 20260901133016 | 82 | 145 | 1.0 | 3.0 | 0.00 | 0.00 | 0.00 | 68 | 1017.5 |
| 20260901132015 | 82 | 134 | 1.0 | 3.0 | 0.00 | 0.00 | 0.00 | 67 | 1017.5 |
| 20260901131016 | 81 | 89 | 0.0 | 2.0 | 0.00 | 0.00 | 0.00 | 68 | 1017.4 |
| 20260901130016 | 80 | 175 | 0.0 | 3.0 | 0.00 | 0.00 | 0.00 | 70 | 1017.2 |
| 20260901125016 | 79 | 197 | 1.0 | 3.0 | 0.00 | 0.00 | 0.00 | 71 | 1017.1 |
| 20260901124016 | 79 | 212 | 1.0 | 2.0 | 0.00 | 0.00 | 0.00 | 72 | 1017.0 |
| 20260901123016 | 79 | 195 | 0.0 | 1.0 | 0.00 | 0.00 | 0.00 | 72 | 1016.9 |
| 20260901122017 | 78 | 165 | 0.0 | 1.0 | 0.00 | 0.00 | 0.00 | 73 | 1016.7 |
| 20260901121017 | 78 | 221 | 0.0 | 2.0 | 0.00 | 0.00 | 0.00 | 73 | 1016.6 |
| 20260901120017 | 78 | 0.0 | 0.0 | 0.00 | 0.00 | 0.00 | 72 | 1016.6 | |
| 20260901115017 | 78 | 0.0 | 0.0 | 0.00 | 0.00 | 0.00 | 72 | 1016.5 | |
| 20260901114017 | 79 | 69 | 0.0 | 2.0 | 0.00 | 0.00 | 0.00 | 71 | 1016.6 |
| 20260901113017 | 79 | 84 | 1.0 | 2.0 | 0.00 | 0.00 | 0.00 | 71 | 1016.5 |
| 20260901112018 | 79 | 79 | 0.0 | 2.0 | 0.00 | 0.00 | 0.00 | 70 | 1016.4 |
| 20260901111015 | 79 | 66 | 0.0 | 1.0 | 0.00 | 0.00 | 0.00 | 69 | 1016.2 |
| 20260901110018 | 80 | 0.0 | 0.0 | 0.00 | 0.00 | 0.00 | 68 | 1016.1 | |
| 20260901105018 | 80 | 224 | 1.0 | 3.0 | 0.00 | 0.00 | 0.00 | 67 | 1016.1 |
| 20260901104015 | 80 | 230 | 1.0 | 3.0 | 0.00 | 0.00 | 0.00 | 66 | 1016.1 |
| 20260901103015 | 81 | 206 | 0.0 | 2.0 | 0.00 | 0.00 | 0.00 | 66 | 1016.1 |
| 20260901102016 | 81 | 194 | 0.0 | 3.0 | 0.00 | 0.00 | 0.00 | 65 | 1016.0 |
| 20260901101016 | 81 | 214 | 1.0 | 3.0 | 0.00 | 0.00 | 0.00 | 64 | 1016.0 |
| 20260901100016 | 81 | 204 | 0.0 | 3.0 | 0.00 | 0.00 | 0.00 | 64 | 1016.1 |
| 20260901095016 | 81 | 207 | 1.0 | 3.0 | 0.00 | 0.00 | 0.00 | 63 | 1016.1 |
| 20260901094017 | 82 | 207 | 0.0 | 2.0 | 0.00 | 0.00 | 0.00 | 62 | 1016.2 |
| 20260901093019 | 82 | 219 | 1.0 | 4.0 | 0.00 | 0.00 | 0.00 | 61 | 1016.2 |
| 20260901092016 | 82 | 217 | 1.0 | 4.0 | 0.00 | 0.00 | 0.00 | 61 | 1016.2 |
| 20260901091017 | 82 | 218 | 2.0 | 5.0 | 0.00 | 0.00 | 0.00 | 60 | 1016.1 |
| 20260901090038 | 83 | 235 | 2.0 | 4.0 | 0.00 | 0.00 | 0.00 | 59 | 1016.0 |
| 20260901085017 | 83 | 220 | 2.0 | 5.0 | 0.00 | 0.00 | 0.00 | 59 | 1016.1 |
| 20260901084018 | 84 | 245 | 2.0 | 6.0 | 0.00 | 0.00 | 0.00 | 58 | 1016.1 |
| 20260901083018 | 84 | 218 | 2.0 | 4.0 | 0.00 | 0.00 | 0.00 | 58 | 1016.1 |
| 20260901082018 | 84 | 230 | 1.0 | 3.0 | 0.00 | 0.00 | 0.00 | 57 | 1016.2 |
| 20260901081018 | 85 | 206 | 2.0 | 8.0 | 0.00 | 0.00 | 0.00 | 56 | 1016.1 |
| 20260901080015 | 85 | 205 | 2.0 | 8.0 | 0.00 | 0.00 | 0.00 | 55 | 1016.0 |
| 20260901075015 | 85 | 198 | 2.0 | 6.0 | 0.00 | 0.00 | 0.00 | 55 | 1016.0 |
| 20260901074015 | 85 | 193 | 2.0 | 5.0 | 0.00 | 0.00 | 0.00 | 54 | 1015.9 |
| 20260901073036 | 86 | 162 | 2.0 | 6.0 | 0.00 | 0.00 | 0.00 | 53 | 1015.9 |
| 20260901072016 | 86 | 203 | 2.0 | 5.0 | 0.00 | 0.00 | 0.00 | 53 | 1015.8 |
| 20260901071016 | 86 | 178 | 2.0 | 5.0 | 0.00 | 0.00 | 0.00 | 52 | 1015.7 |
| 20260901070016 | 86 | 163 | 1.0 | 4.0 | 0.00 | 0.00 | 0.00 | 51 | 1015.6 |
| 20260901065037 | 86 | 182 | 1.0 | 4.0 | 0.00 | 0.00 | 0.00 | 50 | 1015.6 |
| 20260901064017 | 86 | 127 | 1.0 | 3.0 | 0.00 | 0.00 | 0.00 | 50 | 1015.5 |
| 20260901063016 | 86 | 135 | 1.0 | 5.0 | 0.00 | 0.00 | 0.00 | 49 | 1015.4 |
| 20260901062017 | 85 | 141 | 1.0 | 5.0 | 0.00 | 0.00 | 0.00 | 50 | 1015.4 |
| 20260901061018 | 84 | 129 | 1.0 | 3.0 | 0.00 | 0.00 | 0.00 | 50 | 1015.3 |
| 20260901060016 | 84 | 83 | 1.0 | 3.0 | 0.00 | 0.00 | 0.00 | 49 | 1015.1 |
| 20260901055035 | 84 | 120 | 0.0 | 1.0 | 0.00 | 0.00 | 0.00 | 49 | 1015.1 |
| 20260901054016 | 83 | 107 | 1.0 | 2.0 | 0.00 | 0.00 | 0.00 | 50 | 1015.0 |
| 20260901053015 | 83 | 72 | 0.0 | 2.0 | 0.00 | 0.00 | 0.00 | 50 | 1014.9 |
| 20260901052015 | 84 | 76 | 0.0 | 1.0 | 0.00 | 0.00 | 0.00 | 49 | 1014.7 |
| 20260901051056 | 84 | 0.0 | 0.0 | 0.00 | 0.00 | 0.00 | 49 | 1014.7 | |
| 20260901050016 | 84 | 82 | 0.0 | 1.0 | 0.00 | 0.00 | 0.00 | 48 | 1014.8 |
| 20260901045016 | 85 | 48 | 0.0 | 1.0 | 0.00 | 0.00 | 0.00 | 47 | 1014.7 |
| 20260901044016 | 85 | 233 | 0.0 | 1.0 | 0.00 | 0.00 | 0.00 | 46 | 1014.7 |
| 20260901043016 | 86 | 110 | 0.0 | 1.0 | 0.00 | 0.00 | 0.00 | 45 | 1014.7 |
| 20260901042016 | 86 | 159 | 0.0 | 1.0 | 0.00 | 0.00 | 0.00 | 45 | 1014.7 |
| 20260901041016 | 87 | 119 | 0.0 | 1.0 | 0.00 | 0.00 | 0.00 | 44 | 1014.7 |
| 20260901040037 | 87 | 126 | 0.0 | 1.0 | 0.00 | 0.00 | 0.00 | 43 | 1014.7 |
| 20260901035017 | 87 | 118 | 0.0 | 2.0 | 0.00 | 0.00 | 0.00 | 42 | 1014.7 |
| 20260901034017 | 87 | 91 | 0.0 | 1.0 | 0.00 | 0.00 | 0.00 | 42 | 1014.7 |
| 20260901033017 | 88 | 81 | 0.0 | 0.0 | 0.00 | 0.00 | 0.00 | 41 | 1014.7 |
| 20260901032017 | 88 | 86 | 0.0 | 1.0 | 0.00 | 0.00 | 0.00 | 40 | 1014.6 |
| 20260901031038 | 89 | 125 | 0.0 | 1.0 | 0.00 | 0.00 | 0.00 | 40 | 1014.6 |
| 20260901030015 | 89 | 113 | 0.0 | 1.0 | 0.00 | 0.00 | 0.00 | 39 | 1014.5 |
| 20260901025018 | 89 | 103 | 0.0 | 1.0 | 0.00 | 0.00 | 0.00 | 38 | 1014.4 |
| 20260901024018 | 90 | 109 | 0.0 | 1.0 | 0.00 | 0.00 | 0.00 | 38 | 1014.3 |
| 20260901023016 | 90 | 230 | 0.0 | 1.0 | 0.00 | 0.00 | 0.00 | 39 | 1014.2 |
| 20260901022015 | 91 | 90 | 0.0 | 1.0 | 0.00 | 0.00 | 0.00 | 38 | 1014.1 |
| 20260901021036 | 91 | 147 | 0.0 | 1.0 | 0.00 | 0.00 | 0.00 | 37 | 1014.0 |
| 20260901020016 | 92 | 109 | 0.0 | 2.0 | 0.00 | 0.00 | 0.00 | 37 | 1013.8 |
| 20260901015017 | 93 | 113 | 0.0 | 2.0 | 0.00 | 0.00 | 0.00 | 37 | 1013.7 |
| 20260901014016 | 93 | 108 | 0.0 | 2.0 | 0.00 | 0.00 | 0.00 | 36 | 1013.6 |
| 20260901013016 | 94 | 109 | 1.0 | 3.0 | 0.00 | 0.00 | 0.00 | 35 | 1013.6 |
| 20260901012016 | 94 | 108 | 1.0 | 2.0 | 0.00 | 0.00 | 0.00 | 35 | 1013.6 |
| 20260901011017 | 95 | 104 | 2.0 | 5.0 | 0.00 | 0.00 | 0.00 | 34 | 1013.5 |
| 20260901010037 | 95 | 108 | 1.0 | 4.0 | 0.00 | 0.00 | 0.00 | 35 | 1013.4 |
| 20260901005017 | 96 | 109 | 1.0 | 3.0 | 0.00 | 0.00 | 0.00 | 35 | 1013.4 |
| 20260901004018 | 96 | 121 | 1.0 | 4.0 | 0.00 | 0.00 | 0.00 | 34 | 1013.4 |
| 20260901003017 | 97 | 156 | 1.0 | 4.0 | 0.00 | 0.00 | 0.00 | 34 | 1013.4 |
| 20260901002018 | 98 | 166 | 2.0 | 6.0 | 0.00 | 0.00 | 0.00 | 33 | 1013.4 |
| 20260901001018 | 98 | 124 | 1.0 | 4.0 | 0.00 | 0.00 | 0.00 | 33 | 1013.4 |
| 20260901000035 | 99 | 225 | 2.0 | 7.0 | 0.00 | 0.00 | 0.00 | 32 | 1013.4 |
| 20260831235018 | 98 | 130 | 1.0 | 3.0 | 0.00 | 0.00 | 0.00 | 32 | 1013.4 |
| 20260831234019 | 99 | 188 | 1.0 | 5.0 | 0.00 | 0.00 | 0.00 | 32 | 1013.5 |
| 20260831233016 | 99 | 107 | 2.0 | 8.0 | 0.00 | 0.00 | 0.00 | 31 | 1013.4 |
| 20260831232036 | 100 | 92 | 3.0 | 7.0 | 0.00 | 0.00 | 0.00 | 31 | 1013.4 |
| 20260831231016 | 100 | 138 | 2.0 | 6.0 | 0.00 | 0.00 | 0.00 | 31 | 1013.4 |
| 20260831230016 | 101 | 192 | 2.0 | 5.0 | 0.00 | 0.00 | 0.00 | 31 | 1013.4 |
| 20260831225017 | 101 | 203 | 2.0 | 5.0 | 0.00 | 0.00 | 0.00 | 31 | 1013.4 |
| 20260831224016 | 101 | 204 | 2.0 | 6.0 | 0.00 | 0.00 | 0.00 | 31 | 1013.4 |
| 20260831223016 | 101 | 134 | 3.0 | 6.0 | 0.00 | 0.00 | 0.00 | 30 | 1013.5 |
| 20260831222017 | 101 | 222 | 4.0 | 9.0 | 0.00 | 0.00 | 0.00 | 30 | 1013.5 |
| 20260831221017 | 101 | 219 | 2.0 | 6.0 | 0.00 | 0.00 | 0.00 | 30 | 1013.6 |
| 20260831220017 | 100 | 223 | 1.0 | 6.0 | 0.00 | 0.00 | 0.00 | 30 | 1013.6 |
| 20260831215017 | 100 | 193 | 2.0 | 5.0 | 0.00 | 0.00 | 0.00 | 32 | 1013.9 |
| 20260831214017 | 100 | 205 | 3.0 | 8.0 | 0.00 | 0.00 | 0.00 | 31 | 1014.0 |
| 20260831213018 | 100 | 111 | 3.0 | 7.0 | 0.00 | 0.00 | 0.00 | 31 | 1014.0 |
| 20260831212058 | 100 | 101 | 3.0 | 9.0 | 0.00 | 0.00 | 0.00 | 32 | 1014.1 |
| 20260831211018 | 101 | 94 | 4.0 | 9.0 | 0.00 | 0.00 | 0.00 | 31 | 1014.2 |
| 20260831210018 | 101 | 184 | 2.0 | 5.0 | 0.00 | 0.00 | 0.00 | 30 | 1014.3 |
| 20260831205015 | 100 | 215 | 2.0 | 6.0 | 0.00 | 0.00 | 0.00 | 30 | 1014.4 |
| 20260831204015 | 99 | 128 | 2.0 | 5.0 | 0.00 | 0.00 | 0.00 | 32 | 1014.7 |
| 20260831203016 | 100 | 160 | 3.0 | 6.0 | 0.00 | 0.00 | 0.00 | 31 | 1014.8 |
| 20260831202015 | 98 | 131 | 3.0 | 7.0 | 0.00 | 0.00 | 0.00 | 33 | 1014.9 |
| 20260831201016 | 98 | 160 | 2.0 | 5.0 | 0.00 | 0.00 | 0.00 | 35 | 1015.1 |
| 20260831200036 | 98 | 116 | 2.0 | 7.0 | 0.00 | 0.00 | 0.00 | 34 | 1015.2 |
| 20260831195016 | 99 | 108 | 4.0 | 9.0 | 0.00 | 0.00 | 0.00 | 33 | 1015.2 |
| 20260831194016 | 99 | 153 | 3.0 | 8.0 | 0.00 | 0.00 | 0.00 | 33 | 1015.3 |
| 20260831193036 | 99 | 123 | 4.0 | 9.0 | 0.00 | 0.00 | 0.00 | 34 | 1015.4 |
| 20260831192017 | 99 | 156 | 2.0 | 6.0 | 0.00 | 0.00 | 0.00 | 35 | 1015.6 |
| 20260831191017 | 100 | 154 | 3.0 | 7.0 | 0.00 | 0.00 | 0.00 | 32 | 1015.6 |
| 20260831190017 | 99 | 147 | 3.0 | 8.0 | 0.00 | 0.00 | 0.00 | 34 | 1015.6 |
| 20260831185017 | 99 | 184 | 3.0 | 7.0 | 0.00 | 0.00 | 0.00 | 35 | 1015.9 |
| 20260831184017 | 98 | 171 | 3.0 | 10.0 | 0.00 | 0.00 | 0.00 | 37 | 1015.9 |
| 20260831183037 | 98 | 198 | 4.0 | 9.0 | 0.00 | 0.00 | 0.00 | 36 | 1016.0 |
| 20260831182017 | 98 | 218 | 4.0 | 8.0 | 0.00 | 0.00 | 0.00 | 36 | 1016.2 |
| 20260831181018 | 98 | 178 | 2.0 | 7.0 | 0.00 | 0.00 | 0.00 | 36 | 1016.4 |
| 20260831180038 | 98 | 193 | 3.0 | 6.0 | 0.00 | 0.00 | 0.00 | 36 | 1016.6 |
| 20260831175015 | 98 | 167 | 3.0 | 7.0 | 0.00 | 0.00 | 0.00 | 37 | 1016.8 |
| 20260831174016 | 98 | 180 | 3.0 | 6.0 | 0.00 | 0.00 | 0.00 | 37 | 1016.9 |
| 20260831173036 | 97 | 105 | 3.0 | 10.0 | 0.00 | 0.00 | 0.00 | 38 | 1017.0 |
| 20260831172015 | 96 | 129 | 2.0 | 4.0 | 0.00 | 0.00 | 0.00 | 38 | 1017.1 |
| 20260831171016 | 95 | 186 | 3.0 | 7.0 | 0.00 | 0.00 | 0.00 | 40 | 1017.2 |
| 20260831170016 | 96 | 193 | 3.0 | 6.0 | 0.00 | 0.00 | 0.00 | 39 | 1017.3 |
| 20260831165016 | 96 | 182 | 2.0 | 6.0 | 0.00 | 0.00 | 0.00 | 39 | 1017.3 |
| 20260831164016 | 94 | 201 | 2.0 | 4.0 | 0.00 | 0.00 | 0.00 | 40 | 1017.3 |
| 20260831163017 | 94 | 174 | 2.0 | 6.0 | 0.00 | 0.00 | 0.00 | 42 | 1017.3 |
| 20260831162016 | 93 | 243 | 3.0 | 7.0 | 0.00 | 0.00 | 0.00 | 43 | 1017.4 |